Regional Weather Roundup
Issued by NWS

Home | Current Version | Previous Version | Graphics & Text | Print | Product List | Glossary On
Versions: 1 2 3 4 5 6 7 8 9 10 11 12 13 14 15 16 17 18 19 20 21 22 23 24 25 26 27 28 29 30 31 32 33 34 35 36 37 38 39 40 41 42 43 44 45 46 47 48 49 50
000
ASUS43 KFSD 210210
RWRSD

WEATHER ROUNDUP FOR SOUTH DAKOTA
NATIONAL WEATHER SERVICE SIOUX FALLS SD
900 PM CDT THU JUL 20 2017

NOTE: "FAIR" INDICATES FEW OR NO CLOUDS BELOW 12,000 FEET WITH NO
SIGNIFICANT WEATHER AND/OR OBSTRUCTIONS TO VISIBILITY.


SDZ001>005-009-010-012>017-210300-
NORTHWEST AND NORTH CENTRAL SOUTH DAKOTA

CITY           SKY/WX    TMP DP  RH WIND       PRES   REMARKS
BUFFALO          N/A     69  65  86 E13       29.78F
FAITH            N/A     83  56  39 N24G44    29.90R
MOBRIDGE       CLOUDY    83  64  52 E15       29.84R
$$

SDZ012>016-024>037-041>051-057-063-072>074-210300-
SOUTHWEST AND SOUTH CENTRAL SOUTH DAKOTA

CITY           SKY/WX    TMP DP  RH WIND       PRES   REMARKS
RAPID CTY ARPT CLEAR     89  56  32 S18G25    29.86S
PIERRE         NOT AVBL
CUSTER         CLEAR     79  53  40 S9G18     30.05F
ELLSWORTH AFB  CLEAR     90  57  33 S15       29.86R
PHILIP         CLEAR     92  59  33 SW12      29.82R
PINE RIDGE     PTCLDY    84  63  49 SE8       29.92S
SPEARFISH      LGT RAIN  90  54  29 VRB7      29.90R
WINNER         FAIR      89  62  40 SE10      29.87R
$$

SDZ004>011-016>023-039-040-210300-
NORTHEAST SOUTH DAKOTA

CITY           SKY/WX    TMP DP  RH WIND       PRES   REMARKS
ABERDEEN       PTCLDY    78  67  68 SE6       29.90R
WATERTOWN      CLEAR     77  64  64 SE6       29.93R
BROOKINGS      CLEAR     79  68  69 E9        29.95R
SISSETON         N/A     75  69  81 SE5       29.91R
$$

SDZ017-020-022-023-036>040-048>070-210300-
SOUTHEAST SOUTH DAKOTA

CITY           SKY/WX    TMP DP  RH WIND       PRES   REMARKS
SIOUX FALLS    PTCLDY    81  70  69 E10       29.91S
HURON          PTCLDY    82  71  69 SE9       29.88R
CHAMBERLAIN    PTCLDY    86  70  58 SE13      29.87R
MITCHELL       PTCLDY    82  73  74 SE9       29.88S
YANKTON        CLEAR     81  75  82 E7        29.89S
$$

ABBREVIATIONS USED IN REMARKS
   TC - TEMPERATURE IN CELSIUS
  WCI - WIND CHILL INDEX
   HX - HEAT INDEX
  VSB - VISIBILITY




USA.gov is the U.S. government's official web portal to all federal, state and local government web resources and services.